Previsão horária em Plonna

Hoje, 1 Março, Segunda-feira

Tempo Temperatura Precipitação Vento Pressão Humidade
00:00 0°C° 0 mm 3 m/s 762 mmHg 94%
01:00 -1°C° 0 mm 3 m/s 763 mmHg 95%
02:00 -1°C° 0 mm 3 m/s 763 mmHg 95%
03:00 -1°C° 0 mm 2 m/s 763 mmHg 95%
04:00 -1°C° 0 mm 2 m/s 763 mmHg 94%
05:00 -1°C° 0 mm 2 m/s 763 mmHg 94%
06:00 -1°C° 0 mm 2 m/s 763 mmHg 94%
07:00 -1°C° 0 mm 2 m/s 763 mmHg 94%
08:00 +2°C° 0 mm 2 m/s 764 mmHg 88%
09:00 +3°C° 0 mm 2 m/s 764 mmHg 82%
10:00 +5°C° 0 mm 2 m/s 764 mmHg 76%
11:00 +6°C° 0 mm 2 m/s 764 mmHg 73%
12:00 +7°C° 0 mm 3 m/s 764 mmHg 69%
13:00 +8°C° 0 mm 3 m/s 764 mmHg 66%
14:00 +8°C° 0 mm 3 m/s 764 mmHg 68%
15:00 +8°C° 0 mm 3 m/s 764 mmHg 70%
16:00 +6°C° 0 mm 4 m/s 763 mmHg 73%
17:00 +5°C° 0 mm 4 m/s 763 mmHg 78%
18:00 +4°C° 0 mm 3 m/s 763 mmHg 84%
19:00 +3°C° 0 mm 3 m/s 763 mmHg 89%
20:00 +2°C° 0 mm 3 m/s 763 mmHg 90%
21:00 +2°C° 0 mm 3 m/s 763 mmHg 90%
22:00 +1°C° 0 mm 4 m/s 763 mmHg 91%
23:00 +1°C° 0 mm 4 m/s 763 mmHg 91%

Amanhã, 2 Março, Terça-feira

Tempo Temperatura Precipitação Vento Pressão Humidade
00:00 0°C° 0 mm 4 m/s 763 mmHg 91%
01:00 0°C° 0 mm 4 m/s 763 mmHg 91%
02:00 0°C° 0 mm 4 m/s 762 mmHg 91%
03:00 0°C° 0 mm 4 m/s 762 mmHg 92%
04:00 0°C° 0 mm 4 m/s 761 mmHg 92%
05:00 0°C° 0 mm 5 m/s 761 mmHg 92%
06:00 -1°C° 0 mm 5 m/s 762 mmHg 92%
07:00 -1°C° 0 mm 5 m/s 762 mmHg 92%
08:00 +1°C° 0 mm 5 m/s 762 mmHg 85%
09:00 +2°C° 0 mm 5 m/s 761 mmHg 78%
10:00 +4°C° 0 mm 6 m/s 761 mmHg 71%
11:00 +5°C° 0 mm 6 m/s 761 mmHg 68%
12:00 +7°C° 0 mm 6 m/s 761 mmHg 65%
13:00 +8°C° 0 mm 6 m/s 762 mmHg 61%
14:00 +8°C° 0 mm 5 m/s 761 mmHg 63%
15:00 +8°C° 0 mm 5 m/s 761 mmHg 64%
16:00 +8°C° 0 mm 4 m/s 761 mmHg 66%
17:00 +8°C° 0 mm 3 m/s 761 mmHg 72%
18:00 +5°C° 0 mm 3 m/s 762 mmHg 79%
19:00 +4°C° 0 mm 3 m/s 762 mmHg 85%
20:00 +3°C° 0 mm 3 m/s 762 mmHg 87%
21:00 +4°C° 0 mm 2 m/s 762 mmHg 90%
22:00 +3°C° 0 mm 2 m/s 763 mmHg 92%
23:00 +2°C° 0 mm 2 m/s 763 mmHg 91%

Depois de amanhã, 3 Março, Quarta-feira

Tempo Temperatura Precipitação Vento Pressão Humidade
00:00 +2°C° 0 mm 2 m/s 763 mmHg 89%
01:00 +2°C° 0 mm 1 m/s 763 mmHg 88%
02:00 +2°C° 0 mm 1 m/s 763 mmHg 87%
03:00 +2°C° 0 mm 1 m/s 762 mmHg 85%
04:00 +1°C° 0 mm 1 m/s 762 mmHg 83%
05:00 +1°C° 0 mm 1 m/s 762 mmHg 83%
06:00 +1°C° 0 mm 1 m/s 762 mmHg 82%
07:00 +1°C° 0 mm 1 m/s 762 mmHg 81%
08:00 +3°C° 0 mm 1 m/s 762 mmHg 74%
09:00 +4°C° 0 mm 1 m/s 762 mmHg 68%
10:00 +5°C° 0 mm 2 m/s 761 mmHg 61%
11:00 +6°C° 0 mm 2 m/s 761 mmHg 60%
12:00 +7°C° 0 mm 2 m/s 760 mmHg 59%
13:00 +8°C° 0 mm 2 m/s 760 mmHg 58%
14:00 +8°C° 0 mm 2 m/s 759 mmHg 61%
15:00 +8°C° 0 mm 2 m/s 758 mmHg 65%
16:00 +8°C° 0 mm 2 m/s 757 mmHg 69%
17:00 +7°C° 0 mm 2 m/s 757 mmHg 73%
18:00 +6°C° 0 mm 2 m/s 756 mmHg 78%
19:00 +5°C° 0 mm 2 m/s 756 mmHg 83%
20:00 +4°C° 0 mm 2 m/s 755 mmHg 82%
21:00 +3°C° 0 mm 3 m/s 755 mmHg 82%
22:00 +2°C° 0 mm 3 m/s 754 mmHg 82%
23:00 +2°C° 0 mm 3 m/s 753 mmHg 82%

4 Março, Quinta-feira

Tempo Temperatura Precipitação Vento Pressão Humidade
00:00 +2°C° 0 mm 3 m/s 753 mmHg 83%
01:00 +2°C° 0 mm 3 m/s 752 mmHg 83%
02:00 +1°C° 0 mm 3 m/s 751 mmHg 85%
03:00 0°C° 0 mm 4 m/s 751 mmHg 87%
04:00 0°C° 0 mm 4 m/s 750 mmHg 89%
05:00 0°C° 0 mm 4 m/s 750 mmHg 91%
06:00 0°C° 0 mm 4 m/s 749 mmHg 92%
07:00 0°C° 0 mm 4 m/s 749 mmHg 93%
08:00 +1°C° 0 mm 4 m/s 749 mmHg 89%
09:00 +2°C° 0 mm 5 m/s 749 mmHg 84%
10:00 +5°C° 0 mm 5 m/s 748 mmHg 79%
11:00 +6°C° 0 mm 5 m/s 748 mmHg 76%
12:00 +6°C° 0 mm 5 m/s 748 mmHg 72%
13:00 +7°C° 0 mm 5 m/s 748 mmHg 68%
14:00 +7°C° 0 mm 5 m/s 747 mmHg 68%
15:00 +6°C° 0 mm 4 m/s 747 mmHg 69%
16:00 +6°C° 0 mm 4 m/s 747 mmHg 70%
17:00 +5°C° 0 mm 3 m/s 747 mmHg 73%
18:00 +4°C° 0 mm 3 m/s 747 mmHg 76%
19:00 +4°C° 0 mm 2 m/s 747 mmHg 79%
20:00 +4°C° 0 mm 2 m/s 747 mmHg 81%
21:00 +3°C° 0 mm 2 m/s 747 mmHg 83%
22:00 +3°C° 0 mm 2 m/s 747 mmHg 85%
23:00 +1°C° 0 mm 3 m/s 747 mmHg 87%

5 Março, Sexta-feira

Tempo Temperatura Precipitação Vento Pressão Humidade
00:00 +1°C° 0 mm 3 m/s 746 mmHg 88%
01:00 0°C° 0 mm 3 m/s 746 mmHg 90%
02:00 -2°C° 0.1 mm 4 m/s 746 mmHg 90%
03:00 -2°C° 0.1 mm 4 m/s 746 mmHg 91%
04:00 -4°C° 0.1 mm 5 m/s 746 mmHg 91%
05:00 -4°C° 0.2 mm 5 m/s 746 mmHg 90%
06:00 -4°C° 0.2 mm 6 m/s 747 mmHg 88%
07:00 -5°C° 0.2 mm 6 m/s 747 mmHg 87%
08:00 -4°C° 0.1 mm 6 m/s 747 mmHg 79%
09:00 -3°C° 0.1 mm 6 m/s 748 mmHg 70%
10:00 -1°C° 0.1 mm 5 m/s 748 mmHg 62%
11:00 -1°C° 0 mm 5 m/s 749 mmHg 55%
12:00 0°C° 0 mm 5 m/s 749 mmHg 49%
13:00 0°C° 0 mm 5 m/s 749 mmHg 42%
14:00 0°C° 0 mm 5 m/s 750 mmHg 42%
15:00 0°C° 0 mm 5 m/s 750 mmHg 43%
16:00 0°C° 0 mm 5 m/s 751 mmHg 44%
17:00 -1°C° 0 mm 5 m/s 751 mmHg 48%
18:00 -2°C° 0 mm 5 m/s 752 mmHg 53%
19:00 -5°C° 0 mm 5 m/s 753 mmHg 58%
20:00 -5°C° 0 mm 5 m/s 753 mmHg 61%
21:00 -4°C° 0 mm 4 m/s 754 mmHg 63%
22:00 -5°C° 0 mm 3 m/s 755 mmHg 66%
23:00 -5°C° 0 mm 3 m/s 755 mmHg 68%

6 Março, Sábado

Tempo Temperatura Precipitação Vento Pressão Humidade
00:00 -5°C° 0 mm 4 m/s 755 mmHg 70%
01:00 -5°C° 0 mm 4 m/s 756 mmHg 72%
02:00 -5°C° 0 mm 4 m/s 756 mmHg 70%
03:00 -5°C° 0 mm 4 m/s 757 mmHg 68%
04:00 -5°C° 0 mm 4 m/s 757 mmHg 65%
05:00 -5°C° 0 mm 4 m/s 758 mmHg 66%
06:00 -5°C° 0 mm 4 m/s 758 mmHg 66%
07:00 -5°C° 0 mm 4 m/s 759 mmHg 67%
08:00 -4°C° 0 mm 4 m/s 759 mmHg 59%
09:00 -3°C° 0 mm 4 m/s 760 mmHg 52%
10:00 -2°C° 0 mm 4 m/s 760 mmHg 44%
11:00 -1°C° 0 mm 5 m/s 760 mmHg 44%
12:00 -1°C° 0 mm 5 m/s 761 mmHg 43%
13:00 0°C° 0 mm 5 m/s 761 mmHg 42%
14:00 0°C° 0 mm 5 m/s 761 mmHg 44%
15:00 -1°C° 0 mm 5 m/s 761 mmHg 45%
16:00 -1°C° 0 mm 5 m/s 761 mmHg 47%
17:00 -2°C° 0 mm 4 m/s 761 mmHg 51%
18:00 -2°C° 0 mm 3 m/s 761 mmHg 55%
19:00 -3°C° 0 mm 2 m/s 762 mmHg 60%
20:00 -4°C° 0 mm 3 m/s 762 mmHg 61%
21:00 -5°C° 0 mm 3 m/s 762 mmHg 62%
22:00 -5°C° 0 mm 3 m/s 762 mmHg 63%
23:00 -5°C° 0 mm 3 m/s 762 mmHg 63%
Mostrar mais

Necessitamos do seu Consentimento

A Meteoprog e os seus Fornecedores de Serviços podem armazenar e aceder a dados pessoais como cookies, identificadores do dispositivo ou outras tecnologias semelhantes existentes no seu dispositivo e processar estes dados para personalizar conteúdos e anúncios, assim como funcionalidades nas redes sociais e análise de tráfego.

  • Armazenar e/ou aceder a informações no seu dispositivo

    Os cookies, identificadores do dispositivo ou outras informações podem ser armazenados ou acedidos no seu dispositivo, para os fins acima indicados.

  • Anúncios e conteúdos personalizados, medição de anúncios e conteúdos, dados sobre o público-alvo e desenvolvimento de produtos

    Os anúncios e os conteúdos podem ser personalizados com base num perfil. Podem ser adicionados dados adicionais para uma maior personalização dos anúncios e dos conteúdos. A eficácia dos anúncios e dos conteúdos pode ser medida. Podem ser obtidas informações sobre o público que visualizou os anúncios e os conteúdos. Estes dados podem ser usados para desenvolver ou melhorar sistemas, softwares ou a experiência do utilizador.

Ao clicar em "Eu concordo”, permitirá o uso de cookies, identificadores do dispositivo e web beacons mencionados ou outras tecnologias semelhantes. As configurações do navegador do seu dispositivo podem ser alteradas.

Para certos fins, podem ser invocados interesses legítimos ao invés de consentimento. Pode ler mais informação sobre este assunto na nossa Política de Privacidade e Cookies.